EW0890 Weather Reports


time (UTC)temp
C
wind
direction
speed
KPH
gust
KPH
rain 1hr
cm
rain 24hr
cm
rain mn
cm
humidity
%
barometer
mb
20260905152512 31 258 1.6 11.3 0.00 0.00 0.00 70 1014.0
20260905152012 31 297 3.2 11.3 0.00 0.00 0.00 69 1014.1
20260905151615 31 283 3.2 9.7 0.00 0.00 0.00 71 1014.3
20260905151528 31 289 1.6 9.7 0.00 0.00 0.00 72 1014.1
20260905151013 31 139 1.6 9.7 0.00 0.00 0.00 73 1014.0
20260905150515 31 237 3.2 9.7 0.00 0.00 0.00 72 1014.0
20260905150107 31 306 1.6 9.7 0.00 0.00 0.00 73 1014.2
20260905150030 31 305 0.0 9.7 0.00 0.00 0.00 75 1014.0
20260905145502 30 285 1.6 11.3 0.00 0.00 0.00 75 1013.9
20260905145004 30 6 1.6 14.5 0.00 0.00 0.00 75 1013.8
20260905144607 30 284 4.8 14.5 0.00 0.00 0.00 73 1014.0
20260905144521 30 294 4.8 14.5 0.00 0.00 0.00 74 1013.8
20260905144006 30 264 6.4 14.5 0.00 0.00 0.00 75 1013.7
20260905143510 30 271 4.8 14.5 0.00 0.00 0.00 75 1013.6
20260905143101 29 281 6.4 11.3 0.00 0.00 0.00 77 1013.7
20260905143022 29 295 6.4 11.3 0.00 0.00 0.00 76 1013.6
20260905142507 29 281 6.4 11.3 0.00 0.00 0.00 77 1013.6
20260905142009 28 285 3.2 8.0 0.00 0.00 0.00 81 1013.6
20260905141601 28 278 4.8 8.0 0.00 0.00 0.00 80 1013.8
20260905141525 28 281 4.8 8.0 0.00 0.00 0.00 81 1013.7
20260905141010 28 273 3.2 6.4 0.00 0.00 0.00 82 1013.7
20260905140513 28 254 1.6 6.4 0.00 0.00 0.00 84 1013.8
20260905140105 27 291 3.2 8.0 0.00 0.00 0.00 83 1014.1
20260905140030 27 288 3.2 8.0 0.00 0.00 0.00 83 1013.8
20260905135513 27 241 4.8 8.0 0.00 0.00 0.00 82 1013.8
20260905135014 28 289 3.2 6.4 0.00 0.00 0.00 82 1013.9
20260905134604 28 262 3.2 9.7 0.00 0.00 0.00 82 1014.2
20260905134530 28 250 3.2 9.7 0.00 0.00 0.00 82 1013.9
20260905134005 28 281 4.8 9.7 0.00 0.00 0.00 81 1013.9
20260905133508 28 269 3.2 6.4 0.00 0.00 0.00 82 1013.9
20260905133104 27 272 1.6 4.8 0.00 0.00 0.00 84 1014.0
20260905133015 27 271 1.6 4.8 0.00 0.00 0.00 84 1013.8
20260905132509 27 282 3.2 4.8 0.00 0.00 0.00 85 1013.7
20260905132010 27 281 1.6 4.8 0.00 0.00 0.00 85 1013.7
20260905131605 27 295 1.6 4.8 0.00 0.00 0.00 86 1013.9
20260905131520 27 281 1.6 4.8 0.00 0.00 0.00 86 1013.7
20260905131010 27 255 1.6 3.2 0.00 0.00 0.00 85 1013.7
20260905130514 27 274 1.6 6.4 0.00 0.00 0.00 86 1013.6
20260905130107 26 284 1.6 6.4 0.00 0.00 0.00 87 1013.8
20260905130028 26 278 1.6 6.4 0.00 0.00 0.00 87 1013.6
20260905125517 26 283 1.6 3.2 0.00 0.00 0.00 88 1013.7
20260905125018 26 263 0.0 3.2 0.00 0.00 0.00 89 1013.7
20260905124600 26 0 0.0 0.0 0.00 0.00 0.00 90 1013.9
20260905124529 26 267 0.0 0.0 0.00 0.00 0.00 90 1013.6
20260905124014 25 275 0.0 0.0 0.00 0.00 0.00 90 1013.6
20260905123516 25 275 0.0 1.6 0.00 0.00 0.00 90 1013.6
20260905123105 25 0 0.0 1.6 0.00 0.00 0.00 91 1013.7
20260905123032 25 274 0.0 1.6 0.00 0.00 0.00 91 1013.5
20260905122503 25 274 0.0 0.0 0.00 0.00 0.00 92 1013.4
20260905122008 24 274 0.0 0.0 0.00 0.00 0.00 92 1013.4
20260905121605 24 0 0.0 0.0 0.00 0.00 0.00 93 1013.6
20260905121516 24 274 0.0 0.0 0.00 0.00 0.00 93 1013.3
20260905121008 23 274 0.0 0.0 0.00 0.00 0.00 94 1013.3
20260905120508 23 274 0.0 0.0 0.00 0.00 0.00 94 1013.2
20260905120105 23 0 0.0 0.0 0.00 0.00 0.00 94 1013.4
20260905120027 23 274 0.0 0.0 0.00 0.00 0.00 94 1013.1
20260905115511 23 274 0.0 0.0 0.00 0.00 0.00 94 1013.1
20260905115011 23 274 0.0 0.0 0.00 0.00 0.00 94 1013.1
20260905114602 23 0 0.0 0.0 0.00 0.00 0.00 94 1013.3
20260905114528 23 274 0.0 0.0 0.00 0.00 0.00 95 1013.0
20260905114012 23 274 0.0 0.0 0.00 0.00 0.00 95 1013.0
20260905113514 23 274 0.0 0.0 0.00 0.00 0.00 95 1013.0
20260905113101 22 0 0.0 0.0 0.00 0.00 0.00 95 1013.3
20260905113031 22 274 0.0 0.0 0.00 0.00 0.00 95 1013.1
20260905112515 22 274 0.0 0.0 0.00 0.00 0.00 95 1013.0
20260905112014 22 274 0.0 0.0 0.00 0.00 0.00 95 1013.0
20260905111645 23 0 0.0 0.0 0.00 0.00 0.00 94 1013.3
20260905111539 23 274 0.0 0.0 0.00 0.00 0.00 94 1012.9
20260905111008 23 274 0.0 0.0 0.00 0.00 0.00 94 1012.9
20260905110507 23 273 0.0 0.0 0.00 0.00 0.00 94 1013.0
20260905110017 23 274 0.0 0.0 0.00 0.00 0.00 94 1013.0
20260905105511 23 273 0.0 1.6 0.00 0.00 0.00 93 1013.0
20260905105010 23 283 0.0 1.6 0.00 0.00 0.00 93 1013.0
20260905104607 23 0 0.0 1.6 0.00 0.00 0.00 93 1013.2
20260905104534 23 283 0.0 1.6 0.00 0.00 0.00 93 1012.9
20260905104010 23 283 0.0 1.6 0.00 0.00 0.00 93 1012.9
20260905103512 23 283 0.0 1.6 0.00 0.00 0.00 93 1013.0
20260905103101 23 0 0.0 1.6 0.00 0.00 0.00 93 1013.2
20260905103037 23 288 0.0 1.6 0.00 0.00 0.00 93 1013.0
20260905102514 23 287 0.0 1.6 0.00 0.00 0.00 93 1012.9
20260905102015 23 288 1.6 1.6 0.00 0.00 0.00 93 1012.9
20260905101607 23 293 1.6 3.2 0.00 0.00 0.00 93 1013.2
20260905101533 23 278 1.6 3.2 0.00 0.00 0.00 93 1013.0
20260905101018 23 285 1.6 3.2 0.00 0.00 0.00 93 1013.0
20260905100515 23 272 1.6 3.2 0.00 0.00 0.00 93 1013.0
20260905100110 23 284 1.6 3.2 0.00 0.00 0.00 93 1013.4
20260905100033 23 278 1.6 3.2 0.00 0.00 0.00 93 1013.1
20260905095507 23 262 1.6 3.2 0.00 0.00 0.00 94 1013.1
20260905095009 23 279 0.0 1.6 0.00 0.00 0.00 94 1013.1
20260905094605 23 0 0.0 0.0 0.00 0.00 0.00 94 1013.4
20260905094523 23 278 0.0 0.0 0.00 0.00 0.00 94 1013.1
20260905094013 23 272 0.0 0.0 0.00 0.00 0.00 94 1013.2
20260905093512 23 273 0.0 0.0 0.00 0.00 0.00 94 1013.1
20260905093106 23 0 0.0 0.0 0.00 0.00 0.00 94 1013.5
20260905093030 23 272 0.0 0.0 0.00 0.00 0.00 94 1013.0
20260905092511 23 273 0.0 0.0 0.00 0.00 0.00 94 1013.1
20260905092015 23 272 0.0 0.0 0.00 0.00 0.00 94 1013.0
20260905091604 23 0 0.0 0.0 0.00 0.00 0.00 94 1013.3
20260905091531 23 272 0.0 0.0 0.00 0.00 0.00 94 1013.0
20260905091013 23 272 0.0 0.0 0.00 0.00 0.00 94 1013.1
20260905090517 23 272 0.0 0.0 0.00 0.00 0.00 94 1013.0
20260905090105 23 0 0.0 0.0 0.00 0.00 0.00 94 1013.4
20260905090039 23 272 0.0 0.0 0.00 0.00 0.00 94 1013.1
20260905085520 23 272 0.0 0.0 0.00 0.00 0.00 93 1013.2
20260905085019 23 272 0.0 0.0 0.00 0.00 0.00 93 1013.2
20260905084603 23 0 0.0 0.0 0.00 0.00 0.00 93 1013.5
20260905084520 23 272 0.0 0.0 0.00 0.00 0.00 93 1013.1
20260905084008 23 272 0.0 0.0 0.00 0.00 0.00 93 1013.1
20260905083512 23 272 0.0 0.0 0.00 0.00 0.00 93 1013.1
20260905083100 23 0 0.0 0.0 0.00 0.00 0.00 93 1013.4
20260905083033 23 271 0.0 0.0 0.00 0.00 0.00 93 1013.1
20260905082512 24 271 0.0 0.0 0.00 0.00 0.00 93 1013.0
20260905082015 23 278 0.0 0.0 0.00 0.00 0.00 93 1013.1
20260905081601 23 0 0.0 0.0 0.00 0.00 0.00 93 1013.3
20260905081528 23 278 0.0 0.0 0.00 0.00 0.00 93 1013.1
20260905081016 23 273 0.0 0.0 0.00 0.00 0.00 94 1013.1
20260905080517 23 286 0.0 0.0 0.00 0.00 0.00 94 1013.1
20260905080124 23 0 0.0 1.6 0.00 0.00 0.00 94 1013.3
20260905080040 23 284 0.0 1.6 0.00 0.00 0.00 94 1013.0
20260905075515 23 276 0.0 1.6 0.00 0.00 0.00 94 1013.0
20260905075020 23 284 0.0 0.0 0.00 0.00 0.00 94 1013.1
20260905074558 23 0 0.0 0.0 0.00 0.00 0.00 94 1013.4
20260905074532 23 284 0.0 0.0 0.00 0.00 0.00 94 1013.2
20260905074019 23 284 0.0 0.0 0.00 0.00 0.00 94 1013.2
20260905073516 23 284 0.0 0.0 0.00 0.00 0.00 94 1013.2
20260905073105 23 0 0.0 1.6 0.00 0.00 0.00 94 1013.4
20260905073025 23 284 0.0 1.6 0.00 0.00 0.00 94 1013.1
20260905072512 23 284 0.0 1.6 0.00 0.00 0.00 94 1013.0
20260905072011 23 284 0.0 0.0 0.00 0.00 0.00 94 1013.2
20260905071559 23 0 0.0 0.0 0.00 0.00 0.00 94 1013.6
20260905071528 23 284 0.0 0.0 0.00 0.00 0.00 94 1013.2
20260905071006 23 284 0.0 0.0 0.00 0.00 0.00 94 1013.3
20260905070503 23 284 0.0 0.0 0.00 0.00 0.00 94 1013.3
20260905070105 23 0 0.0 0.0 0.00 0.00 0.00 93 1013.7
20260905070013 23 284 0.0 0.0 0.00 0.00 0.00 93 1013.4
20260905065503 23 284 0.0 0.0 0.00 0.00 0.00 93 1013.4
20260905065004 23 284 0.0 0.0 0.00 0.00 0.00 93 1013.5
20260905064604 23 0 0.0 0.0 0.00 0.00 0.00 93 1013.8
20260905064508 23 284 0.0 0.0 0.00 0.00 0.00 93 1013.5
20260905064003 23 284 0.0 0.0 0.00 0.00 0.00 93 1013.5
20260905063508 23 284 0.0 0.0 0.00 0.00 0.00 93 1013.5
20260905063103 23 0 0.0 0.0 0.00 0.00 0.00 93 1013.9
20260905063009 23 284 0.0 0.0 0.00 0.00 0.00 93 1013.6
20260905062503 23 284 0.0 0.0 0.00 0.00 0.00 93 1013.7
20260905062003 23 284 0.0 0.0 0.00 0.00 0.00 93 1013.7
20260905061610 23 0 0.0 0.0 0.00 0.00 0.00 93 1014.0
20260905061512 23 284 0.0 0.0 0.00 0.00 0.00 93 1013.7
20260905061003 23 284 0.0 0.0 0.00 0.00 0.00 92 1013.6
20260905060503 23 284 0.0 0.0 0.00 0.00 0.00 92 1013.6
20260905060109 23 0 0.0 0.0 0.00 0.00 0.00 93 1014.0
20260905060005 23 284 0.0 0.0 0.00 0.00 0.00 93 1013.7
20260905055502 23 284 0.0 0.0 0.00 0.00 0.00 92 1013.7
20260905055004 23 284 0.0 0.0 0.00 0.00 0.00 92 1013.7
20260905054601 24 0 0.0 0.0 0.00 0.00 0.00 92 1014.1
20260905054510 24 284 0.0 0.0 0.00 0.00 0.00 92 1013.7
20260905054005 24 284 0.0 0.0 0.00 0.00 0.00 92 1013.8
20260905053504 23 284 0.0 0.0 0.00 0.00 0.00 92 1013.8
20260905053111 24 0 0.0 0.0 0.00 0.00 0.00 92 1014.1
20260905053012 24 284 0.0 0.0 0.00 0.00 0.00 92 1013.8
20260905052505 24 284 0.0 0.0 0.00 0.00 0.00 91 1013.7
20260905052004 24 284 0.0 0.0 0.00 0.00 0.00 92 1013.7
20260905051558 24 0 0.0 0.0 0.00 0.00 0.00 92 1014.1
20260905051523 24 284 0.0 0.0 0.00 0.00 0.00 92 1013.8
20260905051005 24 284 0.0 0.0 0.00 0.00 0.00 92 1013.8
20260905050503 23 284 0.0 0.0 0.00 0.00 0.00 93 1013.8
20260905050110 23 0 0.0 0.0 0.00 0.00 0.00 93 1014.2
20260905050013 23 284 0.0 0.0 0.00 0.00 0.00 93 1013.8
20260905045503 23 284 0.0 0.0 0.00 0.00 0.00 93 1013.7
20260905045003 23 284 0.0 0.0 0.00 0.00 0.00 92 1013.6
20260905044601 24 0 0.0 0.0 0.00 0.00 0.00 92 1013.9
20260905044508 24 284 0.0 0.0 0.00 0.00 0.00 92 1013.7
20260905044004 24 284 0.0 0.0 0.00 0.00 0.00 92 1013.8
20260905043504 24 284 0.0 0.0 0.00 0.00 0.00 92 1013.9
20260905043105 24 0 0.0 0.0 0.00 0.00 0.00 91 1014.0
20260905043011 24 284 0.0 0.0 0.00 0.00 0.00 91 1013.8
20260905042508 24 284 0.0 0.0 0.00 0.00 0.00 91 1013.8
20260905042003 24 284 0.0 0.0 0.00 0.00 0.00 92 1013.9
20260905041600 24 0 0.0 0.0 0.00 0.00 0.00 92 1014.0
20260905041512 24 284 0.0 0.0 0.00 0.00 0.00 92 1013.8
20260905041003 24 284 0.0 0.0 0.00 0.00 0.00 92 1013.8
20260905040505 24 284 0.0 0.0 0.00 0.00 0.00 92 1013.8
20260905040106 24 0 0.0 0.0 0.00 0.00 0.00 92 1013.9
20260905040014 24 284 0.0 0.0 0.00 0.00 0.00 92 1013.9
20260905035504 24 284 0.0 0.0 0.00 0.00 0.00 92 1013.8
20260905035003 24 284 0.0 0.0 0.00 0.00 0.00 92 1013.8
20260905034617 24 0 0.0 0.0 0.00 0.00 0.00 92 1013.9
20260905034516 24 284 0.0 0.0 0.00 0.00 0.00 92 1013.7
20260905034006 24 284 0.0 0.0 0.00 0.00 0.00 92 1013.7
20260905033509 24 284 0.0 0.0 0.00 0.00 0.00 92 1013.6
20260905033118 24 0 0.0 0.0 0.00 0.00 0.00 92 1013.8
20260905033005 24 284 0.0 0.0 0.00 0.00 0.00 92 1013.7
20260905032505 24 284 0.0 0.0 0.00 0.00 0.00 92 1013.8
20260905032005 24 284 0.0 0.0 0.00 0.00 0.00 92 1014.0
20260905031614 24 0 0.0 0.0 0.00 0.00 0.00 93 1014.1
20260905031514 24 284 0.0 0.0 0.00 0.00 0.00 93 1013.9
20260905031006 25 284 0.0 0.0 0.00 0.00 0.00 92 1013.8
20260905030506 25 284 0.0 0.0 0.00 0.00 0.00 92 1013.8
20260905030104 25 0 0.0 0.0 0.00 0.00 0.00 92 1014.0
20260905030015 25 284 0.0 0.0 0.00 0.00 0.00 92 1013.8
20260905025507 25 284 0.0 0.0 0.00 0.00 0.00 92 1013.8
20260905025007 25 284 0.0 0.0 0.00 0.00 0.00 92 1013.8
20260905024558 25 0 0.0 0.0 0.00 0.00 0.00 92 1013.9
20260905024515 25 284 0.0 0.0 0.00 0.00 0.00 92 1013.8
20260905024007 25 284 0.0 0.0 0.00 0.00 0.00 92 1013.9
20260905023507 25 284 0.0 0.0 0.00 0.00 0.00 92 1013.9
20260905023126 25 0 0.0 0.0 0.00 0.00 0.00 92 1014.0
20260905023019 25 284 0.0 0.0 0.00 0.00 0.00 92 1013.9
20260905022511 25 283 0.0 0.0 0.00 0.00 0.00 91 1013.8
20260905022010 25 284 0.0 0.0 0.00 0.00 0.00 92 1013.8
20260905021602 25 0 0.0 0.0 0.00 0.00 0.00 92 1014.0
20260905021508 25 284 0.0 0.0 0.00 0.00 0.00 92 1013.8
20260905021003 25 283 0.0 0.0 0.00 0.00 0.00 91 1013.7
20260905020506 26 284 0.0 0.0 0.00 0.00 0.00 91 1013.6
20260905020100 26 0 0.0 0.0 0.00 0.00 0.00 91 1013.6
20260905020014 26 284 0.0 0.0 0.00 0.00 0.00 91 1013.5
20260905015507 26 283 0.0 0.0 0.00 0.00 0.00 92 1013.6
20260905015008 26 283 0.0 0.0 0.00 0.00 0.00 91 1013.5
20260905014559 26 0 0.0 0.0 0.00 0.00 0.00 90 1013.7
20260905014516 26 284 0.0 0.0 0.00 0.00 0.00 90 1013.5
20260905014011 26 284 0.0 0.0 0.00 0.00 0.00 90 1013.3
20260905013507 26 283 0.0 0.0 0.00 0.00 0.00 90 1013.2
20260905013100 26 0 0.0 0.0 0.00 0.00 0.00 90 1013.3
20260905013017 26 284 0.0 0.0 0.00 0.00 0.00 90 1013.2
20260905012508 26 283 0.0 0.0 0.00 0.00 0.00 89 1013.3
20260905012008 26 284 0.0 0.0 0.00 0.00 0.00 89 1013.2
20260905011604 26 0 0.0 0.0 0.00 0.00 0.00 89 1013.3
20260905011517 26 283 0.0 0.0 0.00 0.00 0.00 89 1013.2
20260905011008 27 283 0.0 0.0 0.00 0.00 0.00 88 1013.1
20260905010507 27 284 0.0 0.0 0.00 0.00 0.00 88 1013.1
20260905010112 27 0 0.0 0.0 0.00 0.00 0.00 87 1013.1
20260905010009 27 284 0.0 0.0 0.00 0.00 0.00 87 1013.1
20260905005505 27 284 0.0 0.0 0.00 0.00 0.00 87 1013.1
20260905005008 27 284 0.0 0.0 0.00 0.00 0.00 86 1012.9
20260905004627 28 0 0.0 0.0 0.00 0.00 0.00 85 1013.0
20260905004516 28 284 0.0 0.0 0.00 0.00 0.00 85 1012.9
20260905004007 28 283 0.0 0.0 0.00 0.00 0.00 84 1012.9
20260905003509 28 284 0.0 1.6 0.00 0.00 0.00 84 1012.9
20260905003122 29 0 0.0 1.6 0.00 0.00 0.00 83 1013.0
20260905003028 29 283 0.0 1.6 0.00 0.00 0.00 83 1012.9
20260905002505 30 283 0.0 0.0 0.00 0.00 0.00 81 1012.9
20260905002008 30 284 0.0 0.0 0.00 0.00 0.00 79 1013.0
20260905001603 31 0 0.0 0.0 0.00 0.00 0.00 78 1013.1
20260905001516 31 284 0.0 0.0 0.00 0.00 0.00 77 1012.9
20260905001007 32 283 0.0 0.0 0.00 0.00 0.00 74 1012.9
20260905000509 32 284 0.0 0.0 0.00 0.00 0.00 71 1012.8
20260905000137 33 0 0.0 0.0 0.00 0.00 0.00 70 1013.0
20260905000031 33 284 0.0 0.0 0.00 0.00 0.00 70 1012.8
20260904235507 33 284 0.0 0.0 0.00 0.00 0.00 70 1012.9
20260904235004 33 284 0.0 0.0 0.00 0.00 0.00 69 1012.9
20260904234602 33 0 0.0 1.6 0.00 0.00 0.00 69 1013.0
20260904234511 33 284 0.0 1.6 0.00 0.00 0.00 69 1012.7
20260904234007 32 284 0.0 3.2 0.00 0.00 0.00 68 1012.9
20260904233507 32 284 1.6 3.2 0.00 0.00 0.00 65 1013.0
20260904233101 32 280 1.6 3.2 0.00 0.00 0.00 65 1013.1
20260904233020 32 280 1.6 3.2 0.00 0.00 0.00 64 1013.0
20260904232510 33 290 1.6 4.8 0.00 0.00 0.00 64 1013.0
20260904232009 33 286 1.6 4.8 0.00 0.00 0.00 64 1013.1
20260904231602 33 284 1.6 6.4 0.00 0.00 0.00 67 1013.3
20260904231525 33 284 0.0 4.8 0.00 0.00 0.00 67 1013.2
20260904231008 33 283 1.6 6.4 0.00 0.00 0.00 67 1013.1
20260904230508 33 283 4.8 6.4 0.00 0.00 0.00 66 1013.1
20260904230117 33 278 3.2 4.8 0.00 0.00 0.00 66 1013.3
20260904230045 33 284 3.2 4.8 0.00 0.00 0.00 66 1013.2
20260904225508 33 284 1.6 3.2 0.00 0.00 0.00 65 1013.1
20260904225010 33 247 0.0 3.2 0.00 0.00 0.00 66 1013.1
20260904224602 33 273 0.0 6.4 0.00 0.00 0.00 66 1013.1
20260904224519 33 267 0.0 6.4 0.00 0.00 0.00 66 1013.0
20260904224010 33 279 1.6 6.4 0.00 0.00 0.00 65 1013.0
20260904223504 33 285 1.6 4.8 0.00 0.00 0.00 64 1013.0
20260904223102 33 276 0.0 6.4 0.00 0.00 0.00 65 1013.0
20260904223014 33 271 1.6 6.4 0.00 0.00 0.00 63 1013.0
20260904222507 34 277 1.6 6.4 0.00 0.00 0.00 62 1012.9
20260904222008 34 278 0.0 6.4 0.00 0.00 0.00 64 1012.8
20260904221608 33 274 1.6 6.4 0.00 0.00 0.00 64 1012.9
20260904221521 33 283 1.6 6.4 0.00 0.00 0.00 65 1012.7
20260904221011 33 273 1.6 6.4 0.00 0.00 0.00 64 1012.8
20260904220508 33 286 3.2 8.0 0.00 0.00 0.00 64 1012.7
20260904220105 33 289 3.2 8.0 0.00 0.00 0.00 63 1012.9
20260904220026 33 273 4.8 8.0 0.00 0.00 0.00 63 1012.7
20260904215510 34 276 3.2 8.0 0.00 0.00 0.00 60 1012.8
20260904215010 34 242 1.6 4.8 0.00 0.00 0.00 63 1012.8
20260904214608 34 299 1.6 4.8 0.00 0.00 0.00 62 1012.9
20260904214523 34 290 1.6 4.8 0.00 0.00 0.00 63 1012.9
20260904214009 34 234 0.0 4.8 0.00 0.00 0.00 63 1012.9
20260904213512 34 280 1.6 4.8 0.00 0.00 0.00 63 1013.0
20260904213103 34 301 1.6 6.4 0.00 0.00 0.00 63 1013.0
20260904213023 34 260 1.6 6.4 0.00 0.00 0.00 64 1012.9
20260904212509 34 269 1.6 6.4 0.00 0.00 0.00 67 1012.9
20260904212008 33 269 1.6 4.8 0.00 0.00 0.00 65 1013.0
20260904211605 33 252 1.6 6.4 0.00 0.00 0.00 66 1013.3
20260904211516 33 260 0.0 4.8 0.00 0.00 0.00 66 1013.2
20260904211009 33 282 1.6 6.4 0.00 0.00 0.00 67 1013.2
20260904210510 33 284 3.2 6.4 0.00 0.00 0.00 64 1013.3
20260904210104 33 278 4.8 8.0 0.00 0.00 0.00 62 1013.5
20260904210026 33 284 4.8 8.0 0.00 0.00 0.00 64 1013.3
20260904205512 34 273 3.2 8.0 0.00 0.00 0.00 64 1013.4
20260904205012 33 259 1.6 8.0 0.00 0.00 0.00 65 1013.4
20260904204603 33 199 4.8 8.0 0.00 0.00 0.00 63 1013.5
20260904204525 33 245 4.8 8.0 0.00 0.00 0.00 63 1013.4
20260904204011 33 288 3.2 6.4 0.00 0.00 0.00 64 1013.5
20260904203503 33 274 3.2 6.4 0.00 0.00 0.00 64 1013.5
20260904203100 33 281 3.2 9.7 0.00 0.00 0.00 62 1013.7
20260904203007 33 288 3.2 9.7 0.00 0.00 0.00 62 1013.6
20260904202502 34 285 4.8 9.7 0.00 0.00 0.00 63 1013.7
20260904202006 34 289 1.6 8.0 0.00 0.00 0.00 65 1013.7
20260904201628 34 245 3.2 9.7 0.00 0.00 0.00 63 1013.8
20260904201511 34 262 4.8 9.7 0.00 0.00 0.00 62 1013.7
20260904201007 34 262 4.8 9.7 0.00 0.00 0.00 63 1013.7
20260904200506 34 272 4.8 9.7 0.00 0.00 0.00 62 1013.8
20260904200104 34 139 1.6 6.4 0.00 0.00 0.00 64 1014.0
20260904200039 34 170 1.6 6.4 0.00 0.00 0.00 64 1013.8
20260904195510 34 211 3.2 8.0 0.00 0.00 0.00 64 1013.9
20260904195013 34 291 3.2 9.7 0.00 0.00 0.00 64 1013.9
20260904194601 34 282 4.8 9.7 0.00 0.00 0.00 63 1014.2
20260904194540 34 276 6.4 9.7 0.00 0.00 0.00 63 1014.1
20260904194015 34 253 3.2 6.4 0.00 0.00 0.00 65 1014.1
20260904193510 34 238 1.6 6.4 0.00 0.00 0.00 64 1014.1
20260904193101 34 281 3.2 8.0 0.00 0.00 0.00 63 1014.4
20260904193027 34 285 3.2 8.0 0.00 0.00 0.00 61 1014.1
20260904192515 34 269 1.6 9.7 0.00 0.00 0.00 64 1014.2
20260904192003 34 265 4.8 9.7 0.00 0.00 0.00 63 1014.3
20260904191602 34 271 3.2 6.4 0.00 0.00 0.00 65 1014.4
20260904191516 34 265 1.6 6.4 0.00 0.00 0.00 64 1014.3
20260904191004 34 265 1.6 8.0 0.00 0.00 0.00 65 1014.3
20260904190504 34 257 1.6 8.0 0.00 0.00 0.00 65 1014.3
20260904190105 34 283 1.6 6.4 0.00 0.00 0.00 62 1014.7
20260904190016 34 254 1.6 6.4 0.00 0.00 0.00 64 1014.5
20260904185507 34 268 1.6 8.0 0.00 0.00 0.00 65 1014.7
20260904185007 34 276 4.8 8.0 0.00 0.00 0.00 63 1014.6
20260904184602 34 278 3.2 8.0 0.00 0.00 0.00 63 1014.8
20260904184528 34 281 4.8 8.0 0.00 0.00 0.00 62 1014.6
20260904184011 34 267 1.6 9.7 0.00 0.00 0.00 62 1014.6
20260904183511 33 259 6.4 9.7 0.00 0.00 0.00 62 1014.6
20260904183116 34 295 4.8 9.7 0.00 0.00 0.00 63 1014.7
20260904183030 34 287 4.8 9.7 0.00 0.00 0.00 63 1014.6
20260904182513 34 271 4.8 9.7 0.00 0.00 0.00 62 1014.7
20260904182013 34 237 3.2 9.7 0.00 0.00 0.00 65 1014.7
20260904181556 34 245 3.2 8.0 0.00 0.00 0.00 64 1015.0
20260904181530 34 277 3.2 8.0 0.00 0.00 0.00 64 1014.7
20260904181017 34 234 4.8 8.0 0.00 0.00 0.00 62 1014.8
20260904180505 34 262 3.2 6.4 0.00 0.00 0.00 64 1014.7
20260904180103 34 267 3.2 9.7 0.00 0.00 0.00 65 1015.1
20260904180013 34 248 3.2 6.4 0.00 0.00 0.00 64 1014.9
20260904175507 33 293 3.2 9.7 0.00 0.00 0.00 66 1014.9
20260904175007 33 283 4.8 9.7 0.00 0.00 0.00 60 1015.0
20260904174605 33 289 4.8 9.7 0.00 0.00 0.00 63 1015.3
20260904174528 33 255 3.2 9.7 0.00 0.00 0.00 63 1015.0
20260904174007 33 291 3.2 11.3 0.00 0.00 0.00 66 1015.0
20260904173509 33 229 3.2 11.3 0.00 0.00 0.00 63 1015.1
20260904173103 33 284 3.2 12.9 0.00 0.00 0.00 66 1015.4
20260904173023 33 279 3.2 12.9 0.00 0.00 0.00 68 1015.1
20260904172510 33 293 6.4 12.9 0.00 0.00 0.00 64 1015.1
20260904172014 33 258 3.2 8.0 0.00 0.00 0.00 67 1015.2
20260904171616 33 262 3.2 8.0 0.00 0.00 0.00 68 1015.5
20260904171527 33 245 3.2 8.0 0.00 0.00 0.00 67 1015.2
20260904171011 33 267 1.6 8.0 0.00 0.00 0.00 67 1015.3
20260904170511 33 276 3.2 8.0 0.00 0.00 0.00 68 1015.3
20260904170105 32 274 1.6 9.7 0.00 0.00 0.00 66 1015.8
20260904170043 32 94 1.6 9.7 0.00 0.00 0.00 68 1015.4
20260904165511 32 293 4.8 9.7 0.00 0.00 0.00 69 1015.5
20260904165003 32 295 4.8 8.0 0.00 0.00 0.00 65 1015.5
20260904164626 32 282 3.2 8.0 0.00 0.00 0.00 67 1015.9
20260904164513 32 276 3.2 8.0 0.00 0.00 0.00 66 1015.5
20260904164006 32 295 3.2 8.0 0.00 0.00 0.00 67 1015.5
20260904163508 32 244 1.6 8.0 0.00 0.00 0.00 69 1015.5
20260904163113 32 283 3.2 9.7 0.00 0.00 0.00 69 1015.8
20260904163018 32 288 3.2 9.7 0.00 0.00 0.00 69 1015.5
20260904162510 32 283 4.8 9.7 0.00 0.00 0.00 68 1015.4
20260904162011 32 262 4.8 12.9 0.00 0.00 0.00 68 1015.5
20260904161605 32 253 4.8 12.9 0.00 0.00 0.00 70 1015.7
20260904161524 32 227 3.2 12.9 0.00 0.00 0.00 70 1015.5
20260904161016 32 311 4.8 8.0 0.00 0.00 0.00 69 1015.5
20260904160513 32 236 3.2 11.3 0.00 0.00 0.00 69 1015.5
20260904160116 31 278 4.8 11.3 0.00 0.00 0.00 70 1015.6
20260904160026 31 280 4.8 11.3 0.00 0.00 0.00 71 1015.5
20260904155515 31 304 3.2 11.3 0.00 0.00 0.00 69 1015.4
20260904155014 31 276 3.2 11.3 0.00 0.00 0.00 69 1015.4
20260904154605 31 282 6.4 9.7 0.00 0.00 0.00 69 1015.6
20260904154531 31 278 6.4 9.7 0.00 0.00 0.00 69 1015.4
20260904154013 31 259 3.2 6.4 0.00 0.00 0.00 71 1015.4
20260904153504 31 284 3.2 8.0 0.00 0.00 0.00 72 1015.3
20260904153114 31 237 3.2 9.7 0.00 0.00 0.00 72 1015.6
20260904153014 31 241 3.2 9.7 0.00 0.00 0.00 71 1015.3